Regional Weather Roundup
Issued by NWS

Home | Current Version | Previous Version | Text Only | Print | Product List | Glossary On
Versions: 1 2 3 4 5 6 7 8 9 10 11 12 13 14 15 16 17 18 19 20 21 22 23 24 25 26 27 28 29 30 31 32 33 34 35 36 37 38 39 40 41 42 43 44 45 46 47 48 49 50
000
ASUS43 KMPX 261110
RWRMN
WEATHER ROUNDUP FOR MINNESOTA
NATIONAL WEATHER SERVICE TWIN CITIES/CHANHASSEN MN
600 AM CDT WED JUL 26 2017


NOTE: "FAIR" INDICATES FEW OR NO CLOUDS BELOW 12,000 FEET WITH NO
SIGNIFICANT WEATHER AND/OR OBSTRUCTIONS TO VISIBILITY. N/A MEANS
CURRENT SKY AND/OR WEATHER CONDITIONS ARE NOT AVAILABLE.

MNZ060>063-068>070-261200-
   Twin Cities Metro

CITY           SKY/WX    TMP DP  RH WIND       PRES   REMARKS
TWIN CITIES    CLOUDY    73  70  90 E7        29.96F
ST PAUL        LGT RAIN  71  71 100 E5        29.97S
CRYSTAL        CLOUDY    71  67  87 NE3       29.95S
BLAINE         CLOUDY    73  72  94 CALM      29.97S
LAKEVILLE      CLOUDY    66  66 100 SE7       29.98F
SOUTH ST PAUL  CLOUDY    71  71  99 E3        29.97S
LAKE ELMO      LGT RAIN  70  70 100 S5        30.00S
$$
MNZ001>005-007-008-013>017-022>024-027-028-261200-
   Northwest Minnesota

CITY           SKY/WX    TMP DP  RH WIND       PRES   REMARKS
BEMIDJI        CLOUDY    58  54  88 NW5       29.99R
HALLOCK        CLEAR     57  55  94 NW3       29.99S
ROSEAU         CLEAR     61  55  82 W8        29.98R
WARROAD        CLEAR     57  54  88 W6        29.97S
THIEF RVR FALL CLEAR     58  56  93 NW7       30.00F
CROOKSTON      CLEAR     57  55  94 NW6       30.00S
FOSSTON        PTCLDY    57  54  88 CALM      30.01R
DETROIT LAKES  CLOUDY    64  59  82 CALM      30.03R
MOORHEAD       CLOUDY    59  57  94 CALM      30.01S
PARK RAPIDS    MOCLDY    60  56  86 NW5       30.01S
MAHNOMEN       FAIR      57  54  89 S3        30.01R
$$
MNZ006-009>011-018-025>026-261200-
   North Central Minnesota

CITY           SKY/WX    TMP DP  RH WIND       PRES   REMARKS
BAUDETTE       CLEAR     56  55  97 W5        29.95S
FLAG ISLAND    CLEAR     63  57  82 W10       29.94R
INTL FALLS     CLEAR     55  53  93 CALM      29.94S
WASKISH        CLEAR     64  59  82 NW12G21   29.96F
BIG FORK       FOG       54  54 100 CALM      29.96F VSB 1/2
LONGVILLE      PTCLDY    63  61  94 W5        29.98F
GRAND RAPIDS   CLOUDY    64  58  80 NW8       29.99R
CRANE LAKE     CLOUDY    52  52 100 CALM      29.95S
ORR            PTCLDY    55  54  94 CALM      29.93S
COOK             N/A     57  55  94 CALM      29.96S
WALKER         FAIR      58  56  93 SW3       30.00S
$$
MNZ012-019>021-037-261200-
   Northeast Minnesota

CITY           SKY/WX    TMP DP  RH WIND       PRES   REMARKS
DULUTH         PTCLDY    65  64  97 NW7       29.95R
ELY            CLOUDY    61  57  88 CALM      29.94S
HIBBING        CLOUDY    58  58 100 CALM      29.96R
EVELETH        CLOUDY    63  57  80 W3        29.97S
DULUTH HARBOR  CLOUDY    68  66  94 SW5       29.95R
TWO HARBORS    CLOUDY    66  61  82 CALM      29.92R
SILVER BAY     CLOUDY    64  63  94 CALM      29.91R
GRAND MARAIS     N/A     62  60  93 W5        29.88R
G MARAIS ARPRT PTCLDY    61  55  82 CALM      29.92R
$$
MNZ029>031-032-039>041-046>048-054>057-064-261200-
   West Central Minnesota

CITY           SKY/WX    TMP DP  RH WIND       PRES   REMARKS
FERGUS FALLS   CLOUDY    64  59  82 CALM      30.00R
WHEATON        CLOUDY    68  63  83 CALM      30.01S
MORRIS         CLOUDY    72  68  88 N3        30.00R
ALEXANDRIA     CLOUDY    68  61  78 N13       29.99F
ELBOW LAKE     FAIR      67  62  83 CALM      30.00S
WADENA         CLOUDY    61  61 100 CALM      30.00S
GLENWOOD       CLOUDY    68  64  88 N6        29.99S
APPLETON       CLOUDY    72  70  94 CALM      29.99R
BENSON         CLOUDY    70  68  94 N3        30.00R FOG
ORTONVILLE     LGT RAIN  72  68  88 MISG      30.00R
MADISON        MOCLDY    73  73 100 N7        29.99S FOG
WILLMAR        FAIR      70  70 100 NW5       29.98R
$$
MNZ033>034-036-042>043-049>051-058-059-261200-
   Central Minnesota

CITY           SKY/WX    TMP DP  RH WIND       PRES   REMARKS
ST CLOUD       CLOUDY    70  69  97 NE7       29.96S
SAUK CENTRE    FAIR      68  62  79 N8        29.97S
PAYNESVILLE    CLOUDY    71  68  90 N5        29.97R
AITKIN         CLOUDY    63  61  94 CALM      29.98R
PINE RIVER     CLOUDY    63  59  88 CALM      30.03R
BRAINERD       CLOUDY    67  62  84 W5        29.99S
STAPLES        CLOUDY    61  59  94 CALM      30.01R
LONG PRAIRIE   FAIR      64  61  88 NW8       29.98F
LITTLE FALLS   CLOUDY    66  64  94 NW5       29.98F
LITCHFIELD     CLOUDY    72  70  94 N7        29.96R
BUFFALO        CLOUDY    70  67  90 NE5       29.97F
MAPLE LAKE     CLOUDY    70  69  96 E5        29.97F
HUTCHINSON     MOCLDY    71  69  96 CALM      29.97R
$$
MNZ037-044-045-052-053-261200-
   East Central Minnesota

CITY           SKY/WX    TMP DP  RH WIND       PRES   REMARKS
PRINCETON      LGT RAIN  72  70  94 N5        29.98S
MORA           CLOUDY    64  64 100 CALM      30.02R
CAMBRIDGE      LGT RAIN  73  66  78 CALM      29.98R
RUSH CITY      HVY RAIN  69  67  92 CALM      30.00S
MOOSE LAKE     MOCLDY    63  61  94 CALM      29.97R FOG
HINCKLEY       PTSUNNY   68  68 100 CALM      30.00R
CLOQUET        MOCLDY    66  64  94 W5        29.97R FOG
MCGREGOR       PTCLDY    64  61  88 W3        29.99R
$$
MNZ071>073-080-081-089-090-097-098-261200-
   Southwest Minnesota

CITY           SKY/WX    TMP DP  RH WIND       PRES   REMARKS
MONTEVIDEO     CLOUDY    70  66  88 N6        29.98S
GRANITE FALLS  CLOUDY    71  70  96 CALM      29.99R
CANBY          CLOUDY    71  69  93 CALM      30.01R
MARSHALL       CLOUDY    70  69  97 SW7       30.00R
REDWOOD FALLS  CLOUDY    71  68  90 S6        29.97R
OLIVIA         CLOUDY    70  68  94 CALM      29.97R
PIPESTONE      CLOUDY    70  66  88 SE3       30.01S
WINDOM         CLOUDY    70  66  88 CALM      30.01R
WORTHINGTON    LGT RAIN  69  68  96 CALM      30.02R
JACKSON        CLOUDY    70  66  88 CALM      30.02R
TRACY          RAIN      70  70  99 CALM      30.00S
SLAYTON        LGT RAIN  68  65  92 NW6       30.02S
$$
MNZ065>067-074>077-082>085-091>093-261200-
   South Central Minnesota

CITY           SKY/WX    TMP DP  RH WIND       PRES   REMARKS
MANKATO        CLOUDY    71  69  93 NE8       29.98R
NEW ULM        CLOUDY    72  70  94 E3        29.98R
ST JAMES       LGT RAIN  72  70  94 CALM      29.99S
FAIRMONT       CLOUDY    74  70  87 N6        30.00R
GLENCOE        CLOUDY    71  71 100 SE5       29.97R
FARIBAULT      LGT RAIN  70  68  94 N5        29.98F
OWATONNA       RAIN      72  70  94 S5        30.02R
WASECA         TSTM      72  70  94 N17       30.00F
ALBERT LEA     CLOUDY    75  72  88 S6        29.99S
$$
MNZ078>079-086>088-094>096-261200-
   Southeast Minnesota

CITY           SKY/WX    TMP DP  RH WIND       PRES   REMARKS
ROCHESTER      CLOUDY    72  70  93 N8        30.03R
RED WING       RAIN      70  66  88 CALM      29.99S
STANTON        LGT RAIN  68  66  92 E6        29.98F
DODGE CENTER   TSTM      70  66  88 N8        30.03R
WINONA         CLOUDY    73  68  83 CALM      29.97S
AUSTIN         CLOUDY    70  66  88 CALM      30.01R
PRESTON        CLOUDY    70  66  88 S9        30.01S
$$
ABBREVIATIONS USED IN REMARKS
   TC - TEMPERATURES IN CELSIUS
  WCI - WIND CHILL INDEX
   HX - HEAT INDEX
  VSB - VISIBILITY
$$



USA.gov is the U.S. government's official web portal to all federal, state and local government web resources and services.